Location: Kawakawa
(35.3830°S, 174.0670°E)
Time: 02:55:09
(UTC+13:00)

NOAA 11 - Pass Details

Date: 24 January 2019
Orbit: 832 x 850 km, 98.5° (Epoch: 21 February)

Event Time Altitude Azimuth Distance (km) Brightness Sun altitude
Rises 21:30:51 0° 163° (SSE) 3,445 7.6 -10.4°
Reaches altitude 10° 21:33:17 10° 159° (SSE) 2,504 6.8 -10.8°
Maximum altitude 21:38:46 59° 79° (E) 987 4.3 -11.7°
Drops below altitude 10° 21:44:12 10° 360° (N) 2,475 6.3 -12.6°
Sets 21:46:35 0° 356° (N) 3,402 7.0 -13.0°
